Time,TemperatureF,DewpointF,PressureIn,WindDirection,WindDirectionDegrees,WindSpeedMPH,WindSpeedGustMPH,Humidity,HourlyPrecipIn,Conditions,Clouds,dailyrainin,SolarRadiationWatts/m^2,SoftwareType,DateUTC
2013-06-12 00:12:00,57.0,33.0,-100.00,SSE,160,6.0,14.0,40,0.00,,,0.00,1.000000,,2013-06-12 07:12:00,
2013-06-12 00:22:00,57.0,33.0,-100.00,SSE,160,6.0,14.0,40,0.00,,,0.00,1.000000,,2013-06-12 07:22:00,
2013-06-12 00:33:00,57.0,33.0,-100.00,SSE,160,6.0,14.0,40,0.00,,,0.00,1.000000,,2013-06-12 07:33:00,
2013-06-12 00:43:00,57.0,33.0,-100.00,SSE,160,6.0,14.0,40,0.00,,,0.00,1.000000,,2013-06-12 07:43:00,
2013-06-12 00:51:00,57.0,31.0,-100.00,South,177,5.0,13.0,37,0.00,,,0.00,1.000000,,2013-06-12 07:51:00,
2013-06-12 01:22:00,57.0,31.0,-100.00,South,177,5.0,13.0,37,0.00,,,0.00,1.000000,,2013-06-12 08:22:00,
2013-06-12 01:33:00,57.0,31.0,-100.00,South,177,5.0,13.0,37,0.00,,,0.00,1.000000,,2013-06-12 08:33:00,
2013-06-12 01:43:00,57.0,31.0,-100.00,South,177,5.0,13.0,37,0.00,,,0.00,1.000000,,2013-06-12 08:43:00,
2013-06-12 01:51:00,57.0,31.0,-100.00,South,171,4.0,13.0,37,0.00,,,0.00,1.000000,,2013-06-12 08:51:00,
2013-06-12 02:11:00,57.0,31.0,-100.00,South,171,4.0,13.0,37,0.00,,,0.00,1.000000,,2013-06-12 09:11:00,
2013-06-12 02:22:00,57.0,31.0,-100.00,South,171,4.0,13.0,37,0.00,,,0.00,1.000000,,2013-06-12 09:22:00,
2013-06-12 02:33:00,57.0,31.0,-100.00,South,171,4.0,13.0,37,0.00,,,0.00,1.000000,,2013-06-12 09:33:00,
2013-06-12 02:42:00,57.0,31.0,-100.00,South,171,4.0,13.0,37,0.00,,,0.00,1.000000,,2013-06-12 09:42:00,
2013-06-12 02:51:00,57.0,32.0,-100.00,South,174,5.0,12.0,38,0.00,,,0.00,1.000000,,2013-06-12 09:51:00,
2013-06-12 03:11:00,57.0,32.0,-100.00,South,174,5.0,12.0,38,0.00,,,0.00,1.000000,,2013-06-12 10:11:00,
2013-06-12 03:23:00,57.0,32.0,-100.00,South,174,5.0,12.0,38,0.00,,,0.00,1.000000,,2013-06-12 10:23:00,
2013-06-12 03:33:00,57.0,32.0,-100.00,South,174,5.0,12.0,38,0.00,,,0.00,1.000000,,2013-06-12 10:33:00,
2013-06-12 03:43:00,57.0,32.0,-100.00,South,174,5.0,12.0,38,0.00,,,0.00,1.000000,,2013-06-12 10:43:00,
2013-06-12 03:51:00,56.0,34.0,-100.00,South,176,4.0,15.0,44,0.00,,,0.00,1.000000,,2013-06-12 10:51:00,
2013-06-12 04:24:00,56.0,34.0,-100.00,South,176,4.0,15.0,44,0.00,,,0.00,1.000000,,2013-06-12 11:24:00,
2013-06-12 04:33:00,56.0,34.0,-100.00,South,176,4.0,15.0,44,0.00,,,0.00,1.000000,,2013-06-12 11:33:00,
2013-06-12 04:43:00,56.0,34.0,-100.00,South,176,4.0,15.0,44,0.00,,,0.00,1.000000,,2013-06-12 11:43:00,
2013-06-12 04:51:00,58.0,36.0,-100.00,SSE,161,7.0,18.0,44,0.00,,,0.00,1.000000,,2013-06-12 11:51:00,
2013-06-12 05:23:00,58.0,36.0,-100.00,SSE,161,7.0,18.0,44,0.00,,,0.00,1.000000,,2013-06-12 12:23:00,
2013-06-12 05:33:00,58.0,36.0,-100.00,SSE,161,7.0,18.0,44,0.00,,,0.00,1.000000,,2013-06-12 12:33:00,
2013-06-12 05:42:00,58.0,36.0,-100.00,SSE,161,7.0,18.0,44,0.00,,,0.00,1.000000,,2013-06-12 12:42:00,
2013-06-12 05:51:00,57.0,32.0,-100.00,South,177,4.0,18.0,38,0.00,,,0.00,3.000000,,2013-06-12 12:51:00,
2013-06-12 06:22:00,57.0,32.0,-100.00,South,177,4.0,18.0,38,0.00,,,0.00,3.000000,,2013-06-12 13:22:00,
2013-06-12 06:32:00,57.0,32.0,-100.00,South,177,4.0,18.0,38,0.00,,,0.00,3.000000,,2013-06-12 13:32:00,
2013-06-12 06:43:00,57.0,32.0,-100.00,South,177,4.0,18.0,38,0.00,,,0.00,3.000000,,2013-06-12 13:43:00,
2013-06-12 06:51:00,58.0,32.0,-100.00,South,180,4.0,13.0,37,0.00,,,0.00,40.000000,,2013-06-12 13:51:00,
2013-06-12 07:23:00,58.0,32.0,-100.00,South,180,4.0,13.0,37,0.00,,,0.00,40.000000,,2013-06-12 14:23:00,
2013-06-12 07:33:00,58.0,32.0,-100.00,South,180,4.0,13.0,37,0.00,,,0.00,40.000000,,2013-06-12 14:33:00,
2013-06-12 07:43:00,58.0,32.0,-100.00,South,180,4.0,13.0,37,0.00,,,0.00,40.000000,,2013-06-12 14:43:00,
2013-06-12 07:51:00,64.0,33.0,-100.00,SW,216,4.0,16.0,31,0.00,,,0.00,300.000000,,2013-06-12 14:51:00,
2013-06-12 08:12:00,64.0,33.0,-100.00,SW,216,4.0,16.0,31,0.00,,,0.00,300.000000,,2013-06-12 15:12:00,
2013-06-12 08:23:00,64.0,33.0,-100.00,SW,216,4.0,16.0,31,0.00,,,0.00,300.000000,,2013-06-12 15:23:00,
2013-06-12 08:33:00,64.0,33.0,-100.00,SW,216,4.0,16.0,31,0.00,,,0.00,300.000000,,2013-06-12 15:33:00,
2013-06-12 08:43:00,64.0,33.0,-100.00,SW,216,4.0,16.0,31,0.00,,,0.00,300.000000,,2013-06-12 15:43:00,
2013-06-12 08:51:00,67.0,33.0,-100.00,South,188,6.0,15.0,28,0.00,,,0.00,513.000000,,2013-06-12 15:51:00,
2013-06-12 09:11:00,67.0,33.0,-100.00,South,188,6.0,15.0,28,0.00,,,0.00,513.000000,,2013-06-12 16:11:00,
2013-06-12 09:21:00,67.0,33.0,-100.00,South,188,6.0,15.0,28,0.00,,,0.00,513.000000,,2013-06-12 16:21:00,
2013-06-12 09:32:00,67.0,33.0,-100.00,South,188,6.0,15.0,28,0.00,,,0.00,513.000000,,2013-06-12 16:32:00,
2013-06-12 09:43:00,67.0,33.0,-100.00,South,188,6.0,15.0,28,0.00,,,0.00,513.000000,,2013-06-12 16:43:00,
2013-06-12 09:51:00,69.0,33.0,-100.00,WSW,239,6.0,20.0,26,0.00,,,0.00,701.000000,,2013-06-12 16:51:00,
2013-06-12 10:11:00,69.0,33.0,-100.00,WSW,239,6.0,20.0,26,0.00,,,0.00,701.000000,,2013-06-12 17:11:00,
2013-06-12 10:22:00,69.0,33.0,-100.00,WSW,239,6.0,20.0,26,0.00,,,0.00,701.000000,,2013-06-12 17:22:00,
2013-06-12 10:33:00,69.0,33.0,-100.00,WSW,239,6.0,20.0,26,0.00,,,0.00,701.000000,,2013-06-12 17:33:00,
2013-06-12 10:42:00,69.0,33.0,-100.00,WSW,239,6.0,20.0,26,0.00,,,0.00,701.000000,,2013-06-12 17:42:00,
2013-06-12 10:51:00,71.0,33.0,-100.00,SSW,197,4.0,20.0,25,0.00,,,0.00,857.000000,,2013-06-12 17:51:00,
2013-06-12 11:22:00,71.0,33.0,-100.00,SSW,197,4.0,20.0,25,0.00,,,0.00,857.000000,,2013-06-12 18:22:00,
2013-06-12 11:32:00,71.0,33.0,-100.00,SSW,197,4.0,20.0,25,0.00,,,0.00,857.000000,,2013-06-12 18:32:00,
2013-06-12 11:43:00,71.0,33.0,-100.00,SSW,197,4.0,20.0,25,0.00,,,0.00,857.000000,,2013-06-12 18:43:00,
2013-06-12 11:51:00,72.0,35.0,-100.00,SW,230,7.0,17.0,26,0.00,,,0.00,967.000000,,2013-06-12 18:51:00,
2013-06-12 12:22:00,72.0,35.0,-100.00,SW,230,7.0,17.0,26,0.00,,,0.00,967.000000,,2013-06-12 19:22:00,
2013-06-12 12:32:00,72.0,35.0,-100.00,SW,230,7.0,17.0,26,0.00,,,0.00,967.000000,,2013-06-12 19:32:00,
2013-06-12 12:42:00,72.0,35.0,-100.00,SW,230,7.0,17.0,26,0.00,,,0.00,967.000000,,2013-06-12 19:42:00,
2013-06-12 12:51:00,73.0,36.0,-100.00,WSW,242,6.0,20.0,26,0.00,,,0.00,1020.000000,,2013-06-12 19:51:00,
2013-06-12 13:11:00,73.0,36.0,-100.00,WSW,242,6.0,20.0,26,0.00,,,0.00,1020.000000,,2013-06-12 20:11:00,
2013-06-12 13:21:00,73.0,36.0,-100.00,WSW,242,6.0,20.0,26,0.00,,,0.00,1020.000000,,2013-06-12 20:21:00,
2013-06-12 13:32:00,73.0,36.0,-100.00,WSW,242,6.0,20.0,26,0.00,,,0.00,1020.000000,,2013-06-12 20:32:00,
2013-06-12 13:42:00,73.0,36.0,-100.00,WSW,242,6.0,20.0,26,0.00,,,0.00,1020.000000,,2013-06-12 20:42:00,
2013-06-12 13:51:00,72.0,35.0,-100.00,SW,236,6.0,20.0,26,0.00,,,0.00,1023.000000,,2013-06-12 20:51:00,
2013-06-12 14:11:00,72.0,35.0,-100.00,SW,236,6.0,20.0,26,0.00,,,0.00,1023.000000,,2013-06-12 21:11:00,
2013-06-12 14:21:00,72.0,35.0,-100.00,SW,236,6.0,20.0,26,0.00,,,0.00,1023.000000,,2013-06-12 21:21:00,
2013-06-12 14:33:00,72.0,35.0,-100.00,SW,236,6.0,20.0,26,0.00,,,0.00,1023.000000,,2013-06-12 21:33:00,
2013-06-12 14:43:00,72.0,35.0,-100.00,SW,236,6.0,20.0,26,0.00,,,0.00,1023.000000,,2013-06-12 21:43:00,
2013-06-12 15:51:00,72.0,30.0,-100.00,SW,214,6.0,31.0,21,-99.99,,,0.00,881.000000,,2013-06-12 22:51:00,
2013-06-12 16:12:00,72.0,30.0,-100.00,SW,214,6.0,31.0,21,-99.99,,,0.00,881.000000,,2013-06-12 23:12:00,
2013-06-12 16:22:00,72.0,30.0,-100.00,SW,214,6.0,31.0,21,-99.99,,,0.00,881.000000,,2013-06-12 23:22:00,
2013-06-12 16:32:00,72.0,30.0,-100.00,SW,214,6.0,31.0,21,-99.99,,,0.00,881.000000,,2013-06-12 23:32:00,
2013-06-12 16:42:00,72.0,30.0,-100.00,SW,214,6.0,31.0,21,-99.99,,,0.00,881.000000,,2013-06-12 23:42:00,
2013-06-12 16:51:00,70.0,30.0,-100.00,SW,230,9.0,21.0,23,0.00,,,0.00,729.000000,,2013-06-12 23:51:00,
2013-06-12 17:11:00,70.0,30.0,-100.00,SW,230,9.0,21.0,23,0.00,,,0.00,729.000000,,2013-06-13 00:11:00,
2013-06-12 17:22:00,70.0,30.0,-100.00,SW,230,9.0,21.0,23,0.00,,,0.00,729.000000,,2013-06-13 00:22:00,
2013-06-12 17:32:00,70.0,30.0,-100.00,SW,230,9.0,21.0,23,0.00,,,0.00,729.000000,,2013-06-13 00:32:00,
2013-06-12 17:42:00,70.0,30.0,-100.00,SW,230,9.0,21.0,23,0.00,,,0.00,729.000000,,2013-06-13 00:42:00,
2013-06-12 17:51:00,67.0,31.0,-100.00,WSW,252,8.0,28.0,26,0.00,,,0.00,546.000000,,2013-06-13 00:51:00,
2013-06-12 18:22:00,67.0,31.0,-100.00,WSW,252,8.0,28.0,26,0.00,,,0.00,546.000000,,2013-06-13 01:22:00,
2013-06-12 18:32:00,67.0,31.0,-100.00,WSW,252,8.0,28.0,26,0.00,,,0.00,546.000000,,2013-06-13 01:32:00,
2013-06-12 18:42:00,67.0,31.0,-100.00,WSW,252,8.0,28.0,26,0.00,,,0.00,546.000000,,2013-06-13 01:42:00,
2013-06-12 18:51:00,64.0,25.0,-100.00,SW,228,7.0,21.0,23,0.00,,,0.00,350.000000,,2013-06-13 01:51:00,
2013-06-12 19:11:00,64.0,25.0,-100.00,SW,228,7.0,21.0,23,0.00,,,0.00,350.000000,,2013-06-13 02:11:00,
2013-06-12 19:22:00,64.0,25.0,-100.00,SW,228,7.0,21.0,23,0.00,,,0.00,350.000000,,2013-06-13 02:22:00,
2013-06-12 19:33:00,64.0,25.0,-100.00,SW,228,7.0,21.0,23,0.00,,,0.00,350.000000,,2013-06-13 02:33:00,
2013-06-12 19:42:00,64.0,25.0,-100.00,SW,228,7.0,21.0,23,0.00,,,0.00,350.000000,,2013-06-13 02:42:00,
2013-06-12 19:51:00,59.0,23.0,-100.00,SW,225,7.0,23.0,25,0.00,,,0.00,160.000000,,2013-06-13 02:51:00,
2013-06-12 20:11:00,59.0,23.0,-100.00,SW,225,7.0,23.0,25,0.00,,,0.00,160.000000,,2013-06-13 03:11:00,
2013-06-12 20:22:00,59.0,23.0,-100.00,SW,225,7.0,23.0,25,0.00,,,0.00,160.000000,,2013-06-13 03:22:00,
2013-06-12 20:33:00,59.0,23.0,-100.00,SW,225,7.0,23.0,25,0.00,,,0.00,160.000000,,2013-06-13 03:33:00,
2013-06-12 20:42:00,59.0,23.0,-100.00,SW,225,7.0,23.0,25,0.00,,,0.00,160.000000,,2013-06-13 03:42:00,
2013-06-12 20:51:00,54.0,28.0,-100.00,SSW,193,5.0,23.0,37,0.00,,,0.00,7.000000,,2013-06-13 03:51:00,
2013-06-12 21:22:00,54.0,28.0,-100.00,SSW,193,5.0,23.0,37,0.00,,,0.00,7.000000,,2013-06-13 04:22:00,
2013-06-12 21:32:00,54.0,28.0,-100.00,SSW,193,5.0,23.0,37,0.00,,,0.00,7.000000,,2013-06-13 04:32:00,
2013-06-12 21:43:00,54.0,28.0,-100.00,SSW,193,5.0,23.0,37,0.00,,,0.00,7.000000,,2013-06-13 04:43:00,
2013-06-12 21:51:00,52.0,26.0,-100.00,SSW,198,6.0,15.0,36,0.00,,,0.00,1.000000,,2013-06-13 04:51:00,
2013-06-12 22:11:00,52.0,26.0,-100.00,SSW,198,6.0,15.0,36,0.00,,,0.00,1.000000,,2013-06-13 05:11:00,
2013-06-12 22:23:00,52.0,26.0,-100.00,SSW,198,6.0,15.0,36,0.00,,,0.00,1.000000,,2013-06-13 05:23:00,
2013-06-12 22:33:00,52.0,26.0,-100.00,SSW,198,6.0,15.0,36,0.00,,,0.00,1.000000,,2013-06-13 05:33:00,
2013-06-12 22:42:00,52.0,26.0,-100.00,SSW,198,6.0,15.0,36,0.00,,,0.00,1.000000,,2013-06-13 05:42:00,
2013-06-12 22:51:00,52.0,18.0,-100.00,SW,214,5.0,16.0,26,0.00,,,0.00,1.000000,,2013-06-13 05:51:00,
2013-06-12 23:22:00,52.0,18.0,-100.00,SW,214,5.0,16.0,26,0.00,,,0.00,1.000000,,2013-06-13 06:22:00,
2013-06-12 23:33:00,52.0,18.0,-100.00,SW,214,5.0,16.0,26,0.00,,,0.00,1.000000,,2013-06-13 06:33:00,
2013-06-12 23:44:00,52.0,18.0,-100.00,SW,214,5.0,16.0,26,0.00,,,0.00,1.000000,,2013-06-13 06:44:00,
2013-06-12 23:51:00,50.0,21.0,-100.00,South,187,5.0,11.0,31,0.00,,,0.00,1.000000,,2013-06-13 06:51:00,